Regional Weather Roundup
Issued by NWS Jackson, KY

Home | Current Version | Previous Version | Text Only | Print | Product List | Glossary On
Versions: 1 2 3 4 5 6 7 8 9 10 11 12 13 14 15 16 17 18 19 20 21 22 23 24 25 26 27
000
ASUS43 KJKL 260910
RWRJKL

EAST KENTUCKY HOURLY WEATHER ROUNDUP
NATIONAL WEATHER SERVICE JACKSON KY
500 AM EDT SUN MAR 26 2017

NOTE: "FAIR" INDICATES FEW OR NO CLOUDS BELOW 12,000 FEET WITH
NO SIGNIFICANT WEATHER AND/OR OBSTRUCTIONS TO VISIBILITY.

* THESE REPORTS ARE NOT UNDER NWS QUALITY CONTROL AND MAY NOT
  REPORT WEATHER SUCH AS PRECIPITATION AND FOG.

KYZ079-080-083-085-087-088-110-112-115-119-120-261000
...EASTERN KENTUCKY...

CITY           SKY/WX    TMP DP  RH WIND       PRES   REMARKS
JACKSON        CLOUDY    64  46  52 SE7       30.00F
LONDON         LGT RAIN  59  49  69 SW7       30.02R
SOMERSET*      LGT RAIN  55  55 100 CALM      30.03S
MONTICELLO*    RAIN      56  55  97 CALM      30.02F
WILLIAMSBURG*  CLOUDY    57  57 100 W5        30.03R
MIDDLESBORO*   RAIN      56  53  90 CALM      30.04R
HARLAN APT*    PTSUNNY   63  46  55 CALM      30.03R
PIKE CO APT*     N/A     62  46  56 SE7       30.03F
BIG SANDY APT* MOSUNNY   63  47  54 S10G16    30.02F
MOREHEAD APT*  MOSUNNY   63  45  51 CALM      30.01F
ASHLAND*       MOCLDY    43  43 100 CALM      29.98F
$$

KYZ035-036-041-042-044-050-067-078-099-261000
...CENTRAL KENTUCKY...

CITY           SKY/WX    TMP DP  RH WIND       PRES   REMARKS
MT STERLING*   CLOUDY    59  52  77 W3        30.01S
FLEMING/MASON* CLOUDY    58  50  73 S5        30.00F
DANVILLE*      LGT RAIN  55  54  94 SW6       30.01F
LEXINGTON      LGT RAIN  58  54  86 SW12      30.00F
FRANKFORT      CLOUDY    59  54  83 S9        29.98F
LOUISVILLE     LGT RAIN  59  56  89 SE10      29.96F
LEBANON*       LGT RAIN  57  57 100 S8        29.99S
GLASGOW*       LGT RAIN N/A N/A N/A SE7       29.96F
BOWLING GREEN  CLOUDY    58  55  90 S7        29.96S
$$

KYZ091>093-OHZ055-061-077-WVZ005-015-034-035-042-261000
...SOUTHERN OHIO/WEST VIRGINIA...

CITY           SKY/WX    TMP DP  RH WIND       PRES   REMARKS
COVINGTON      CLOUDY    59  56  89 SW7       29.97F
COLUMBUS       CLOUDY    63  49  60 SE7       29.97F
DAYTON         CLOUDY    58  53  84 SW5       29.99S
WILMINGTON     CLOUDY    57  49  74 SW3       29.98F
HUNTINGTON     CLOUDY    64  45  49 SE5       29.99F
CHARLESTON     CLOUDY    59  47  64 SE5       30.03F
PINEVILLE*     CLOUDY    48  44  84 MISG      30.13S
BECKLEY        PTCLDY    55  44  66 SE7       30.11F
LOGAN CO APT*    N/A     61  46  59 CALM      30.05F
$$

VAZ002-007-008-TNZ017-027-036-066-071-261000
...SOUTHWEST VIRGINIA/EAST TENNESSEE...

CITY           SKY/WX    TMP DP  RH WIND       PRES   REMARKS
WISE*          MOCLDY    59  45  58 S15       30.07F
JONESVILLE*      N/A    N/A N/A N/A MISG        N/A
ABINGDON*      MOCLDY    61  47  59 S6        30.09S
BRISTOL        CLOUDY    61  48  62 SE7       30.06F
MORRISTOWN*    CLOUDY    61  48  63 CALM      30.03R
SEVIERVILLE*   CLOUDY    66  48  52 S13       30.02S
KNOXVILLE      RAIN      59  56  89 S14       30.04S FOG
LAFOLLETTE*    CLOUDY    55  54  94 CALM      30.07R FOG
OAK RIDGE      LGT RAIN  58  56  93 CALM      30.06S FOG
CROSSVILLE     CLOUDY    56  54  93 S10       30.03S
NASHVILLE      LGT RAIN  57  56  96 S7        29.96F
$$

...KEY TO REMARKS...
VSB - VISIBILITY IN MILES
WCI - WIND CHILL INDEX
HX  - HEAT INDEX

$$




USA.gov is the U.S. government's official web portal to all federal, state and local government web resources and services.